| time (UTC) | temp F | wind direction | speed MPH | gust MPH | rain 1hr in | rain 24hr in | rain mn in | humidity % | barometer mb |
| 20260508061753 | 47 | 205 | 1.0 | 2.0 | 0.00 | 0.00 | 0.00 | 72 | 1010.2 |
| 20260508061250 | 47 | 213 | 1.0 | 2.0 | 0.00 | 0.00 | 0.00 | 72 | 1010.1 |
| 20260508060746 | 47 | 194 | 1.0 | 2.0 | 0.00 | 0.00 | 0.00 | 73 | 1010.3 |
| 20260508060244 | 46 | 197 | 1.0 | 1.0 | 0.00 | 0.00 | 0.00 | 74 | 1010.1 |
| 20260508055739 | 46 | 200 | 1.0 | 1.0 | 0.00 | 0.00 | 0.00 | 74 | 1010.2 |
| 20260508055237 | 46 | 188 | 1.0 | 1.0 | 0.00 | 0.00 | 0.00 | 74 | 1010.0 |
| 20260508054733 | 46 | 192 | 0.0 | 0.0 | 0.00 | 0.00 | 0.00 | 73 | 1010.4 |
| 20260508054231 | 46 | 196 | 0.0 | 0.0 | 0.00 | 0.00 | 0.00 | 74 | 1010.3 |
| 20260508053728 | 46 | 192 | 2.0 | 2.0 | 0.00 | 0.00 | 0.00 | 74 | 1010.4 |
| 20260508053225 | 46 | 193 | 1.0 | 1.0 | 0.00 | 0.00 | 0.00 | 73 | 1010.7 |
| 20260508052722 | 46 | 195 | 2.0 | 2.0 | 0.00 | 0.00 | 0.00 | 73 | 1010.5 |
| 20260508052219 | 46 | 197 | 0.0 | 0.0 | 0.00 | 0.00 | 0.00 | 73 | 1010.7 |
| 20260508051715 | 46 | 215 | 0.0 | 0.0 | 0.00 | 0.00 | 0.00 | 74 | 1010.5 |
| 20260508051211 | 46 | 227 | 0.0 | 0.0 | 0.00 | 0.00 | 0.00 | 73 | 1010.8 |
| 20260508050708 | 47 | 211 | 0.0 | 0.0 | 0.00 | 0.00 | 0.00 | 73 | 1010.8 |
| 20260508050206 | 47 | 211 | 0.0 | 0.0 | 0.00 | 0.00 | 0.00 | 73 | 1010.7 |
| 20260508045700 | 47 | 211 | 0.0 | 0.0 | 0.00 | 0.00 | 0.00 | 72 | 1010.9 |
| 20260508045159 | 47 | 210 | 0.0 | 0.0 | 0.00 | 0.00 | 0.00 | 73 | 1010.7 |
| 20260508044656 | 47 | 205 | 0.0 | 0.0 | 0.00 | 0.00 | 0.00 | 72 | 1010.8 |
| 20260508044152 | 47 | 213 | 2.0 | 2.0 | 0.00 | 0.00 | 0.00 | 72 | 1010.5 |
| 20260508043648 | 47 | 209 | 1.0 | 2.0 | 0.00 | 0.00 | 0.00 | 72 | 1010.7 |
| 20260508043146 | 47 | 227 | 0.0 | 0.0 | 0.00 | 0.00 | 0.00 | 71 | 1010.8 |
| 20260508042642 | 47 | 221 | 0.0 | 0.0 | 0.00 | 0.00 | 0.00 | 71 | 1010.7 |
| 20260508042140 | 48 | 248 | 2.0 | 2.0 | 0.00 | 0.00 | 0.00 | 70 | 1010.5 |
| 20260508041636 | 48 | 220 | 1.0 | 2.0 | 0.00 | 0.00 | 0.00 | 70 | 1010.4 |
| 20260508041133 | 48 | 236 | 1.0 | 1.0 | 0.00 | 0.00 | 0.00 | 70 | 1010.8 |
| 20260508040629 | 48 | 236 | 1.0 | 1.0 | 0.00 | 0.00 | 0.00 | 69 | 1010.8 |
| 20260508040127 | 48 | 242 | 2.0 | 2.0 | 0.00 | 0.00 | 0.00 | 68 | 1011.0 |
| 20260508035624 | 48 | 243 | 2.0 | 2.0 | 0.00 | 0.00 | 0.00 | 68 | 1010.9 |
| 20260508035121 | 48 | 280 | 2.0 | 2.0 | 0.00 | 0.00 | 0.00 | 68 | 1010.8 |
| 20260508034618 | 48 | 238 | 3.0 | 3.0 | 0.00 | 0.00 | 0.00 | 68 | 1010.9 |
| 20260508034115 | 48 | 228 | 1.0 | 2.0 | 0.00 | 0.00 | 0.00 | 68 | 1011.0 |
| 20260508033613 | 48 | 240 | 3.0 | 5.0 | 0.00 | 0.00 | 0.00 | 68 | 1010.9 |
| 20260508033111 | 48 | 217 | 4.0 | 5.0 | 0.00 | 0.00 | 0.00 | 69 | 1011.0 |
| 20260508032607 | 47 | 251 | 3.0 | 3.0 | 0.00 | 0.00 | 0.00 | 69 | 1010.9 |
| 20260508032105 | 47 | 216 | 4.0 | 6.0 | 0.00 | 0.00 | 0.00 | 69 | 1011.0 |
| 20260508031602 | 47 | 235 | 1.0 | 2.0 | 0.00 | 0.00 | 0.00 | 70 | 1010.8 |
| 20260508031057 | 47 | 235 | 1.0 | 2.0 | 0.00 | 0.00 | 0.00 | 71 | 1011.0 |
| 20260508030554 | 46 | 236 | 2.0 | 2.0 | 0.00 | 0.00 | 0.00 | 70 | 1010.9 |
| 20260508030052 | 46 | 233 | 1.0 | 1.0 | 0.00 | 0.00 | 0.00 | 72 | 1011.1 |
| 20260508025548 | 45 | 223 | 2.0 | 2.0 | 0.00 | 0.00 | 0.00 | 72 | 1011.1 |
| 20260508025045 | 44 | 284 | 2.0 | 2.0 | 0.00 | 0.00 | 0.00 | 78 | 1011.1 |
| 20260508024541 | 43 | 345 | 0.0 | 1.0 | 0.00 | 0.00 | 0.00 | 85 | 1011.1 |
| 20260508024038 | 42 | 333 | 0.0 | 0.0 | 0.00 | 0.00 | 0.00 | 88 | 1011.1 |
| 20260508023534 | 42 | 332 | 0.0 | 0.0 | 0.00 | 0.00 | 0.00 | 88 | 1011.0 |
| 20260508023032 | 43 | 335 | 0.0 | 0.0 | 0.00 | 0.00 | 0.00 | 87 | 1010.8 |
| 20260508022528 | 43 | 324 | 0.0 | 0.0 | 0.00 | 0.00 | 0.00 | 86 | 1010.5 |
| 20260508022025 | 43 | 324 | 0.0 | 0.0 | 0.00 | 0.00 | 0.00 | 85 | 1011.0 |
| 20260508021521 | 43 | 323 | 0.0 | 0.0 | 0.00 | 0.00 | 0.00 | 86 | 1010.8 |
| 20260508021017 | 44 | 323 | 0.0 | 0.0 | 0.00 | 0.00 | 0.00 | 87 | 1010.7 |
| 20260508020515 | 44 | 323 | 0.0 | 0.0 | 0.00 | 0.00 | 0.00 | 84 | 1010.7 |
| 20260508020012 | 44 | 323 | 0.0 | 0.0 | 0.00 | 0.00 | 0.00 | 83 | 1010.4 |
| 20260508015509 | 44 | 323 | 0.0 | 0.0 | 0.00 | 0.00 | 0.00 | 82 | 1010.3 |
| 20260508015006 | 44 | 323 | 0.0 | 0.0 | 0.00 | 0.00 | 0.00 | 80 | 1010.7 |
| 20260508014503 | 45 | 323 | 0.0 | 0.0 | 0.00 | 0.00 | 0.00 | 81 | 1010.7 |
| 20260508013959 | 45 | 323 | 0.0 | 0.0 | 0.00 | 0.00 | 0.00 | 79 | 1010.1 |
| 20260508013455 | 45 | 323 | 0.0 | 0.0 | 0.00 | 0.00 | 0.00 | 78 | 1010.7 |
| 20260508012952 | 45 | 323 | 0.0 | 0.0 | 0.00 | 0.00 | 0.00 | 76 | 1010.5 |
| 20260508012449 | 45 | 323 | 0.0 | 0.0 | 0.00 | 0.00 | 0.00 | 73 | 1010.4 |
| 20260508011947 | 46 | 323 | 0.0 | 0.0 | 0.00 | 0.00 | 0.00 | 72 | 1010.4 |
| 20260508011444 | 46 | 323 | 0.0 | 0.0 | 0.00 | 0.00 | 0.00 | 65 | 1010.3 |
| 20260508010942 | 46 | 323 | 0.0 | 0.0 | 0.00 | 0.00 | 0.00 | 64 | 1010.3 |
| 20260508010439 | 47 | 323 | 0.0 | 0.0 | 0.00 | 0.00 | 0.00 | 66 | 1010.1 |
| 20260508005936 | 47 | 322 | 0.0 | 0.0 | 0.00 | 0.00 | 0.00 | 63 | 1010.2 |
| 20260508005432 | 47 | 323 | 0.0 | 0.0 | 0.00 | 0.00 | 0.00 | 60 | 1010.2 |
| 20260508004929 | 48 | 323 | 0.0 | 0.0 | 0.00 | 0.00 | 0.00 | 59 | 1010.1 |
| 20260508004425 | 48 | 323 | 0.0 | 0.0 | 0.00 | 0.00 | 0.00 | 58 | 1010.1 |
| 20260508003922 | 48 | 323 | 0.0 | 0.0 | 0.00 | 0.00 | 0.00 | 58 | 1009.9 |
| 20260508003419 | 49 | 323 | 0.0 | 0.0 | 0.00 | 0.00 | 0.00 | 57 | 1009.9 |
| 20260508002916 | 49 | 323 | 0.0 | 0.0 | 0.00 | 0.00 | 0.00 | 56 | 1010.0 |
| 20260508002413 | 50 | 323 | 0.0 | 0.0 | 0.00 | 0.00 | 0.00 | 56 | 1010.2 |
| 20260508001908 | 51 | 323 | 1.0 | 1.0 | 0.00 | 0.00 | 0.00 | 52 | 1010.1 |
| 20260508001405 | 51 | 326 | 0.0 | 0.0 | 0.00 | 0.00 | 0.00 | 53 | 1009.8 |
| 20260508000902 | 51 | 325 | 1.0 | 1.0 | 0.00 | 0.00 | 0.00 | 51 | 1009.9 |
| 20260508000358 | 52 | 312 | 2.0 | 2.0 | 0.00 | 0.00 | 0.00 | 50 | 1010.0 |
| 20260507235854 | 52 | 296 | 3.0 | 5.0 | 0.00 | 0.00 | 0.00 | 50 | 1009.9 |
| 20260507235352 | 52 | 335 | 4.0 | 5.0 | 0.00 | 0.00 | 0.00 | 49 | 1009.8 |
| 20260507234849 | 52 | 332 | 3.0 | 3.0 | 0.00 | 0.00 | 0.00 | 49 | 1009.8 |
| 20260507234345 | 53 | 299 | 4.0 | 5.0 | 0.00 | 0.00 | 0.00 | 48 | 1009.8 |
| 20260507233842 | 53 | 6 | 2.0 | 2.0 | 0.00 | 0.00 | 0.00 | 50 | 1009.8 |
| 20260507233339 | 53 | 293 | 3.0 | 3.0 | 0.00 | 0.00 | 0.00 | 49 | 1009.9 |
| 20260507232838 | 53 | 313 | 3.0 | 5.0 | 0.00 | 0.00 | 0.00 | 48 | 1009.9 |
| 20260507232334 | 53 | 320 | 4.0 | 5.0 | 0.00 | 0.00 | 0.00 | 48 | 1009.7 |
| 20260507231832 | 53 | 328 | 6.0 | 8.0 | 0.00 | 0.00 | 0.00 | 47 | 1009.6 |
| 20260507231328 | 54 | 321 | 5.0 | 6.0 | 0.00 | 0.00 | 0.00 | 48 | 1009.7 |
| 20260507230824 | 54 | 334 | 2.0 | 2.0 | 0.00 | 0.00 | 0.00 | 48 | 1009.7 |
| 20260507230321 | 54 | 2 | 7.0 | 8.0 | 0.00 | 0.00 | 0.00 | 48 | 1009.6 |
| 20260507225821 | 54 | 282 | 0.0 | 1.0 | 0.00 | 0.00 | 0.00 | 48 | 1009.9 |
| 20260507225318 | 54 | 357 | 3.0 | 3.0 | 0.00 | 0.00 | 0.00 | 46 | 1009.9 |
| 20260507224814 | 54 | 298 | 4.0 | 5.0 | 0.00 | 0.00 | 0.00 | 46 | 1010.1 |
| 20260507224311 | 54 | 302 | 3.0 | 5.0 | 0.00 | 0.00 | 0.00 | 46 | 1009.9 |
| 20260507223807 | 54 | 318 | 6.0 | 8.0 | 0.00 | 0.00 | 0.00 | 46 | 1010.0 |
| 20260507223303 | 55 | 8 | 5.0 | 8.0 | 0.00 | 0.00 | 0.00 | 47 | 1009.6 |
| 20260507222800 | 54 | 8 | 5.0 | 8.0 | 0.00 | 0.00 | 0.00 | 46 | 1009.8 |
| 20260507222256 | 55 | 298 | 5.0 | 6.0 | 0.00 | 0.00 | 0.00 | 45 | 1009.6 |
| 20260507221754 | 55 | 277 | 4.0 | 6.0 | 0.00 | 0.00 | 0.00 | 47 | 1009.9 |
| 20260507221250 | 54 | 285 | 5.0 | 7.0 | 0.00 | 0.00 | 0.00 | 46 | 1009.9 |
| 20260507220746 | 54 | 316 | 6.0 | 7.0 | 0.00 | 0.00 | 0.00 | 47 | 1010.1 |
| 20260507220245 | 54 | 265 | 2.0 | 2.0 | 0.00 | 0.00 | 0.00 | 48 | 1009.8 |
| 20260507215740 | 53 | 322 | 5.0 | 6.0 | 0.00 | 0.00 | 0.00 | 49 | 1009.9 |
| 20260507215238 | 54 | 302 | 5.0 | 6.0 | 0.00 | 0.00 | 0.00 | 49 | 1009.7 |
| 20260507214735 | 55 | 312 | 8.0 | 8.0 | 0.00 | 0.00 | 0.00 | 49 | 1009.6 |
| 20260507214232 | 54 | 335 | 6.0 | 7.0 | 0.00 | 0.00 | 0.00 | 49 | 1009.7 |
| 20260507213727 | 55 | 310 | 4.0 | 5.0 | 0.00 | 0.00 | 0.00 | 51 | 1009.9 |
| 20260507213225 | 54 | 349 | 7.0 | 8.0 | 0.00 | 0.00 | 0.00 | 51 | 1009.6 |
| 20260507212721 | 53 | 22 | 3.0 | 6.0 | 0.00 | 0.00 | 0.00 | 52 | 1009.4 |
| 20260507212218 | 54 | 323 | 3.0 | 3.0 | 0.00 | 0.00 | 0.00 | 53 | 1009.8 |
| 20260507211714 | 54 | 349 | 5.0 | 8.0 | 0.00 | 0.00 | 0.00 | 52 | 1009.6 |
| 20260507211210 | 54 | 298 | 4.0 | 5.0 | 0.00 | 0.00 | 0.00 | 52 | 1009.6 |
| 20260507210708 | 55 | 297 | 4.0 | 6.0 | 0.00 | 0.00 | 0.00 | 52 | 1009.6 |
| 20260507210204 | 55 | 291 | 2.0 | 3.0 | 0.00 | 0.00 | 0.00 | 53 | 1009.5 |
| 20260507205701 | 53 | 349 | 6.0 | 7.0 | 0.00 | 0.00 | 0.00 | 56 | 1009.3 |
| 20260507205157 | 54 | 6 | 7.0 | 11.0 | 0.00 | 0.00 | 0.00 | 56 | 1009.3 |
| 20260507204654 | 53 | 34 | 8.0 | 10.0 | 0.00 | 0.00 | 0.00 | 56 | 1009.2 |
| 20260507204152 | 54 | 319 | 4.0 | 6.0 | 0.00 | 0.00 | 0.00 | 55 | 1009.1 |
| 20260507203649 | 53 | 286 | 3.0 | 5.0 | 0.00 | 0.00 | 0.00 | 51 | 1009.2 |
| 20260507203147 | 53 | 301 | 3.0 | 3.0 | 0.00 | 0.00 | 0.00 | 50 | 1009.4 |
| 20260507202642 | 53 | 308 | 5.0 | 6.0 | 0.00 | 0.00 | 0.00 | 49 | 1009.1 |
| 20260507202138 | 53 | 330 | 6.0 | 6.0 | 0.00 | 0.00 | 0.00 | 51 | 1009.1 |
| 20260507201633 | 54 | 285 | 7.0 | 9.0 | 0.00 | 0.00 | 0.00 | 49 | 1009.3 |
| 20260507201131 | 54 | 277 | 7.0 | 11.0 | 0.00 | 0.00 | 0.00 | 50 | 1009.3 |
| 20260507200627 | 54 | 255 | 3.0 | 3.0 | 0.00 | 0.00 | 0.00 | 47 | 1009.2 |
| 20260507200123 | 54 | 297 | 3.0 | 5.0 | 0.00 | 0.00 | 0.00 | 49 | 1009.2 |
| 20260507195620 | 54 | 231 | 6.0 | 7.0 | 0.00 | 0.00 | 0.00 | 47 | 1009.1 |
| 20260507195117 | 53 | 267 | 6.0 | 7.0 | 0.00 | 0.00 | 0.00 | 49 | 1009.3 |
| 20260507194614 | 53 | 290 | 7.0 | 8.0 | 0.00 | 0.00 | 0.00 | 52 | 1009.4 |
| 20260507194109 | 53 | 302 | 3.0 | 5.0 | 0.00 | 0.00 | 0.00 | 54 | 1009.3 |
| 20260507193606 | 54 | 284 | 3.0 | 6.0 | 0.00 | 0.00 | 0.00 | 51 | 1009.4 |
| 20260507193103 | 55 | 297 | 4.0 | 7.0 | 0.00 | 0.00 | 0.00 | 51 | 1009.4 |
| 20260507192559 | 55 | 239 | 6.0 | 9.0 | 0.00 | 0.00 | 0.00 | 50 | 1009.4 |
| 20260507192057 | 55 | 263 | 3.0 | 3.0 | 0.00 | 0.00 | 0.00 | 49 | 1009.5 |
| 20260507191552 | 55 | 250 | 2.0 | 2.0 | 0.00 | 0.00 | 0.00 | 50 | 1009.6 |
| 20260507191049 | 55 | 281 | 10.0 | 11.0 | 0.00 | 0.00 | 0.00 | 47 | 1009.6 |
| 20260507190546 | 56 | 268 | 0.0 | 1.0 | 0.00 | 0.00 | 0.00 | 50 | 1009.4 |
| 20260507190045 | 55 | 257 | 6.0 | 9.0 | 0.00 | 0.00 | 0.00 | 49 | 1009.4 |
| 20260507185543 | 54 | 296 | 2.0 | 2.0 | 0.00 | 0.00 | 0.00 | 51 | 1009.6 |
| 20260507185039 | 54 | 257 | 5.0 | 6.0 | 0.00 | 0.00 | 0.00 | 48 | 1009.5 |
| 20260507184538 | 53 | 299 | 3.0 | 3.0 | 0.00 | 0.00 | 0.00 | 51 | 1009.4 |
| 20260507184035 | 54 | 284 | 4.0 | 5.0 | 0.00 | 0.00 | 0.00 | 51 | 1009.7 |
| 20260507183531 | 54 | 273 | 3.0 | 5.0 | 0.00 | 0.00 | 0.00 | 51 | 1009.5 |
| 20260507183028 | 54 | 313 | 5.0 | 6.0 | 0.00 | 0.00 | 0.00 | 50 | 1009.6 |
| 20260507182524 | 54 | 239 | 4.0 | 5.0 | 0.00 | 0.00 | 0.00 | 50 | 1009.5 |
| 20260507182020 | 53 | 285 | 4.0 | 5.0 | 0.00 | 0.00 | 0.00 | 49 | 1009.9 |
| 20260507181518 | 55 | 230 | 5.0 | 6.0 | 0.00 | 0.00 | 0.00 | 49 | 1009.7 |
| 20260507181014 | 55 | 242 | 7.0 | 9.0 | 0.00 | 0.00 | 0.00 | 47 | 1009.6 |
| 20260507180510 | 53 | 234 | 3.0 | 3.0 | 0.00 | 0.00 | 0.00 | 49 | 1009.8 |
| 20260507180007 | 54 | 270 | 7.0 | 7.0 | 0.00 | 0.00 | 0.00 | 50 | 1009.7 |
| 20260507175503 | 53 | 251 | 3.0 | 3.0 | 0.00 | 0.00 | 0.00 | 52 | 1009.9 |
| 20260507175001 | 53 | 286 | 7.0 | 8.0 | 0.00 | 0.00 | 0.00 | 53 | 1009.8 |
| 20260507174458 | 53 | 309 | 3.0 | 3.0 | 0.00 | 0.00 | 0.00 | 56 | 1009.8 |
| 20260507173955 | 53 | 299 | 4.0 | 5.0 | 0.00 | 0.00 | 0.00 | 54 | 1009.9 |
| 20260507173452 | 53 | 209 | 1.0 | 1.0 | 0.00 | 0.00 | 0.00 | 55 | 1009.7 |
| 20260507172949 | 52 | 294 | 4.0 | 5.0 | 0.00 | 0.00 | 0.00 | 53 | 1009.9 |
| 20260507172445 | 53 | 304 | 5.0 | 6.0 | 0.00 | 0.00 | 0.00 | 52 | 1009.8 |
| 20260507171942 | 54 | 253 | 4.0 | 5.0 | 0.00 | 0.00 | 0.00 | 50 | 1010.0 |
| 20260507171438 | 55 | 268 | 3.0 | 3.0 | 0.00 | 0.00 | 0.00 | 52 | 1009.8 |
| 20260507170936 | 55 | 222 | 8.0 | 9.0 | 0.00 | 0.00 | 0.00 | 48 | 1010.0 |
| 20260507170432 | 53 | 280 | 6.0 | 7.0 | 0.00 | 0.00 | 0.00 | 52 | 1010.2 |
| 20260507165928 | 54 | 322 | 5.0 | 6.0 | 0.00 | 0.00 | 0.00 | 53 | 1010.0 |
| 20260507165424 | 55 | 276 | 5.0 | 6.0 | 0.00 | 0.00 | 0.00 | 53 | 1009.9 |
| 20260507164920 | 54 | 225 | 5.0 | 6.0 | 0.00 | 0.00 | 0.00 | 51 | 1010.1 |
| 20260507164417 | 54 | 237 | 7.0 | 9.0 | 0.00 | 0.00 | 0.00 | 49 | 1009.9 |
| 20260507163914 | 53 | 302 | 6.0 | 7.0 | 0.00 | 0.00 | 0.00 | 49 | 1009.9 |
| 20260507163412 | 55 | 220 | 3.0 | 3.0 | 0.00 | 0.00 | 0.00 | 50 | 1010.0 |
| 20260507162909 | 54 | 243 | 3.0 | 3.0 | 0.00 | 0.00 | 0.00 | 44 | 1010.0 |
| 20260507162404 | 54 | 260 | 4.0 | 5.0 | 0.00 | 0.00 | 0.00 | 51 | 1010.0 |
| 20260507161902 | 53 | 285 | 7.0 | 8.0 | 0.00 | 0.00 | 0.00 | 54 | 1010.0 |
| 20260507161357 | 54 | 255 | 5.0 | 6.0 | 0.00 | 0.00 | 0.00 | 54 | 1010.3 |
| 20260507160854 | 54 | 328 | 3.0 | 5.0 | 0.00 | 0.00 | 0.00 | 53 | 1009.9 |
| 20260507160350 | 53 | 276 | 2.0 | 3.0 | 0.00 | 0.00 | 0.00 | 53 | 1010.0 |
| 20260507155846 | 52 | 313 | 3.0 | 5.0 | 0.00 | 0.00 | 0.00 | 56 | 1009.9 |
| 20260507155342 | 52 | 295 | 5.0 | 6.0 | 0.00 | 0.00 | 0.00 | 55 | 1010.1 |
| 20260507154839 | 52 | 276 | 3.0 | 3.0 | 0.00 | 0.00 | 0.00 | 54 | 1010.1 |
| 20260507154337 | 53 | 252 | 1.0 | 1.0 | 0.00 | 0.00 | 0.00 | 54 | 1010.0 |
| 20260507153833 | 53 | 256 | 5.0 | 7.0 | 0.00 | 0.00 | 0.00 | 56 | 1010.2 |
| 20260507153330 | 52 | 327 | 5.0 | 6.0 | 0.00 | 0.00 | 0.00 | 54 | 1010.4 |
| 20260507152826 | 53 | 353 | 6.0 | 7.0 | 0.00 | 0.00 | 0.00 | 57 | 1010.0 |
| 20260507152323 | 53 | 289 | 4.0 | 5.0 | 0.00 | 0.00 | 0.00 | 53 | 1010.2 |
| 20260507151819 | 53 | 304 | 3.0 | 3.0 | 0.00 | 0.00 | 0.00 | 58 | 1010.1 |
| 20260507151315 | 53 | 315 | 1.0 | 1.0 | 0.00 | 0.00 | 0.00 | 57 | 1010.1 |
| 20260507150812 | 53 | 12 | 4.0 | 5.0 | 0.00 | 0.00 | 0.00 | 59 | 1010.2 |
| 20260507150309 | 53 | 261 | 3.0 | 3.0 | 0.00 | 0.00 | 0.00 | 59 | 1010.3 |
| 20260507145805 | 53 | 226 | 1.0 | 2.0 | 0.00 | 0.00 | 0.00 | 61 | 1010.2 |
| 20260507145302 | 53 | 204 | 3.0 | 5.0 | 0.00 | 0.00 | 0.00 | 59 | 1010.2 |
| 20260507144759 | 53 | 313 | 1.0 | 1.0 | 0.00 | 0.00 | 0.00 | 59 | 1010.2 |
| 20260507144256 | 53 | 243 | 4.0 | 6.0 | 0.00 | 0.00 | 0.00 | 60 | 1010.2 |
| 20260507143752 | 52 | 230 | 1.0 | 1.0 | 0.00 | 0.00 | 0.00 | 63 | 1010.1 |
| 20260507143250 | 51 | 245 | 4.0 | 5.0 | 0.00 | 0.00 | 0.00 | 64 | 1010.0 |
| 20260507142745 | 51 | 238 | 3.0 | 3.0 | 0.00 | 0.00 | 0.00 | 64 | 1010.2 |
| 20260507142242 | 51 | 329 | 1.0 | 1.0 | 0.00 | 0.00 | 0.00 | 63 | 1010.2 |
| 20260507141739 | 51 | 271 | 3.0 | 5.0 | 0.00 | 0.00 | 0.00 | 64 | 1010.3 |
| 20260507141236 | 52 | 216 | 1.0 | 2.0 | 0.00 | 0.00 | 0.00 | 67 | 1010.4 |
| 20260507140732 | 52 | 220 | 3.0 | 3.0 | 0.00 | 0.00 | 0.00 | 66 | 1010.5 |
| 20260507140230 | 51 | 292 | 2.0 | 2.0 | 0.00 | 0.00 | 0.00 | 67 | 1010.4 |
| 20260507135726 | 51 | 225 | 2.0 | 2.0 | 0.00 | 0.00 | 0.00 | 64 | 1010.7 |
| 20260507135224 | 50 | 268 | 1.0 | 1.0 | 0.00 | 0.00 | 0.00 | 67 | 1010.5 |
| 20260507134720 | 50 | 245 | 0.0 | 1.0 | 0.00 | 0.00 | 0.00 | 68 | 1010.9 |
| 20260507134216 | 50 | 292 | 3.0 | 3.0 | 0.00 | 0.00 | 0.00 | 67 | 1010.7 |
| 20260507133712 | 50 | 338 | 1.0 | 1.0 | 0.00 | 0.00 | 0.00 | 69 | 1010.8 |
| 20260507133209 | 49 | 276 | 0.0 | 0.0 | 0.00 | 0.00 | 0.00 | 69 | 1010.7 |
| 20260507132707 | 49 | 224 | 1.0 | 2.0 | 0.00 | 0.00 | 0.00 | 71 | 1010.7 |
| 20260507132203 | 49 | 197 | 0.0 | 1.0 | 0.00 | 0.00 | 0.00 | 71 | 1010.8 |
| 20260507131700 | 49 | 214 | 1.0 | 1.0 | 0.00 | 0.00 | 0.00 | 73 | 1011.0 |
| 20260507131158 | 48 | 207 | 1.0 | 2.0 | 0.00 | 0.00 | 0.00 | 73 | 1011.1 |
| 20260507130654 | 48 | 227 | 2.0 | 3.0 | 0.00 | 0.00 | 0.00 | 73 | 1010.9 |
| 20260507130152 | 48 | 201 | 1.0 | 1.0 | 0.00 | 0.00 | 0.00 | 75 | 1010.8 |
| 20260507125650 | 47 | 238 | 0.0 | 1.0 | 0.00 | 0.00 | 0.00 | 76 | 1011.0 |
| 20260507125148 | 46 | 237 | 1.0 | 1.0 | 0.00 | 0.00 | 0.00 | 77 | 1011.0 |
| 20260507124643 | 47 | 280 | 2.0 | 2.0 | 0.00 | 0.00 | 0.00 | 76 | 1011.0 |
| 20260507124141 | 46 | 283 | 2.0 | 2.0 | 0.00 | 0.00 | 0.00 | 77 | 1011.1 |
| 20260507123640 | 46 | 282 | 3.0 | 3.0 | 0.00 | 0.00 | 0.00 | 77 | 1011.1 |
| 20260507123136 | 46 | 300 | 1.0 | 1.0 | 0.00 | 0.00 | 0.00 | 78 | 1010.9 |
| 20260507122632 | 46 | 277 | 1.0 | 1.0 | 0.00 | 0.00 | 0.00 | 80 | 1011.0 |
| 20260507122128 | 46 | 257 | 2.0 | 2.0 | 0.00 | 0.00 | 0.00 | 80 | 1010.9 |
| 20260507121624 | 45 | 258 | 2.0 | 2.0 | 0.00 | 0.00 | 0.00 | 82 | 1010.7 |
| 20260507121120 | 44 | 208 | 0.0 | 1.0 | 0.00 | 0.00 | 0.00 | 84 | 1010.5 |
| 20260507120616 | 44 | 206 | 1.0 | 1.0 | 0.00 | 0.00 | 0.00 | 85 | 1010.7 |
| 20260507120113 | 43 | 175 | 0.0 | 0.0 | 0.00 | 0.00 | 0.00 | 85 | 1010.7 |
| 20260507115609 | 43 | 190 | 1.0 | 2.0 | 0.00 | 0.00 | 0.00 | 86 | 1010.8 |
| 20260507115105 | 42 | 145 | 2.0 | 2.0 | 0.00 | 0.00 | 0.00 | 90 | 1010.8 |
| 20260507114601 | 41 | 125 | 1.0 | 2.0 | 0.00 | 0.00 | 0.00 | 93 | 1010.8 |
| 20260507114058 | 40 | 87 | 0.0 | 0.0 | 0.00 | 0.00 | 0.00 | 95 | 1010.9 |
| 20260507113555 | 40 | 87 | 0.0 | 0.0 | 0.00 | 0.00 | 0.00 | 95 | 1010.5 |
| 20260507113053 | 40 | 87 | 0.0 | 0.0 | 0.00 | 0.00 | 0.00 | 96 | 1010.7 |
| 20260507112550 | 39 | 87 | 0.0 | 0.0 | 0.00 | 0.00 | 0.00 | 96 | 1010.9 |
| 20260507112047 | 39 | 87 | 0.0 | 0.0 | 0.00 | 0.00 | 0.00 | 96 | 1010.7 |
| 20260507111544 | 39 | 87 | 0.0 | 0.0 | 0.00 | 0.00 | 0.00 | 97 | 1010.7 |
| 20260507111041 | 39 | 86 | 0.0 | 0.0 | 0.00 | 0.00 | 0.00 | 97 | 1010.3 |
| 20260507110537 | 39 | 81 | 0.0 | 0.0 | 0.00 | 0.00 | 0.00 | 97 | 1010.5 |
| 20260507110034 | 38 | 81 | 0.0 | 0.0 | 0.00 | 0.00 | 0.00 | 97 | 1010.8 |
| 20260507105531 | 38 | 81 | 0.0 | 0.0 | 0.00 | 0.00 | 0.00 | 97 | 1010.7 |
| 20260507105026 | 38 | 74 | 0.0 | 0.0 | 0.00 | 0.00 | 0.00 | 97 | 1010.4 |
| 20260507104524 | 38 | 74 | 0.0 | 0.0 | 0.00 | 0.00 | 0.00 | 96 | 1010.2 |
| 20260507104020 | 38 | 74 | 0.0 | 0.0 | 0.00 | 0.00 | 0.00 | 96 | 1010.3 |
| 20260507103517 | 38 | 74 | 0.0 | 0.0 | 0.00 | 0.00 | 0.00 | 95 | 1010.4 |
| 20260507103013 | 39 | 74 | 0.0 | 0.0 | 0.00 | 0.00 | 0.00 | 95 | 1010.1 |
| 20260507102510 | 38 | 73 | 0.0 | 0.0 | 0.00 | 0.00 | 0.00 | 96 | 1010.3 |
| 20260507102007 | 39 | 73 | 0.0 | 0.0 | 0.00 | 0.00 | 0.00 | 96 | 1010.2 |
| 20260507101501 | 39 | 73 | 0.0 | 0.0 | 0.00 | 0.00 | 0.00 | 95 | 1010.1 |
| 20260507100958 | 39 | 73 | 0.0 | 0.0 | 0.00 | 0.00 | 0.00 | 95 | 1010.3 |
| 20260507100456 | 39 | 45 | 0.0 | 0.0 | 0.00 | 0.00 | 0.00 | 96 | 1010.1 |
| 20260507095954 | 39 | 28 | 0.0 | 0.0 | 0.00 | 0.00 | 0.00 | 96 | 1010.1 |
| 20260507095451 | 39 | 26 | 3.0 | 3.0 | 0.00 | 0.00 | 0.00 | 96 | 1010.1 |
| 20260507094948 | 39 | 133 | 0.0 | 0.0 | 0.00 | 0.00 | 0.00 | 96 | 1010.1 |
| 20260507094444 | 39 | 132 | 0.0 | 0.0 | 0.00 | 0.00 | 0.00 | 96 | 1009.9 |
| 20260507093941 | 39 | 124 | 0.0 | 0.0 | 0.00 | 0.00 | 0.00 | 96 | 1010.1 |
| 20260507093439 | 39 | 124 | 0.0 | 0.0 | 0.00 | 0.00 | 0.00 | 97 | 1010.2 |
| 20260507092937 | 39 | 124 | 0.0 | 0.0 | 0.00 | 0.00 | 0.00 | 97 | 1010.2 |
| 20260507092433 | 39 | 124 | 0.0 | 0.0 | 0.00 | 0.00 | 0.00 | 97 | 1010.3 |
| 20260507091930 | 39 | 122 | 0.0 | 0.0 | 0.00 | 0.00 | 0.00 | 97 | 1010.2 |
| 20260507091426 | 39 | 121 | 0.0 | 0.0 | 0.00 | 0.00 | 0.00 | 98 | 1010.1 |
| 20260507090922 | 38 | 121 | 0.0 | 0.0 | 0.00 | 0.00 | 0.00 | 98 | 1010.1 |
| 20260507090418 | 38 | 121 | 0.0 | 0.0 | 0.00 | 0.00 | 0.00 | 98 | 1010.7 |
| 20260507085915 | 38 | 120 | 0.0 | 0.0 | 0.00 | 0.00 | 0.00 | 98 | 1010.3 |
| 20260507085412 | 38 | 120 | 0.0 | 0.0 | 0.00 | 0.00 | 0.00 | 98 | 1010.4 |
| 20260507084909 | 38 | 120 | 0.0 | 0.0 | 0.00 | 0.00 | 0.00 | 98 | 1010.3 |
| 20260507084406 | 38 | 120 | 0.0 | 0.0 | 0.00 | 0.00 | 0.00 | 98 | 1010.3 |
| 20260507083903 | 38 | 121 | 1.0 | 1.0 | 0.00 | 0.00 | 0.00 | 99 | 1010.2 |
| 20260507083359 | 38 | 119 | 1.0 | 1.0 | 0.00 | 0.00 | 0.00 | 99 | 1010.4 |
| 20260507082856 | 38 | 110 | 1.0 | 1.0 | 0.00 | 0.00 | 0.00 | 99 | 1010.3 |
| 20260507082351 | 38 | 106 | 0.0 | 0.0 | 0.00 | 0.00 | 0.00 | 99 | 1010.4 |
| 20260507081849 | 38 | 92 | 0.0 | 0.0 | 0.00 | 0.00 | 0.00 | 99 | 1010.3 |
| 20260507081345 | 38 | 91 | 0.0 | 0.0 | 0.00 | 0.00 | 0.00 | 99 | 1010.4 |
| 20260507080842 | 38 | 91 | 0.0 | 0.0 | 0.00 | 0.00 | 0.00 | 99 | 1010.7 |
| 20260507080338 | 38 | 91 | 0.0 | 0.0 | 0.00 | 0.00 | 0.00 | 99 | 1010.4 |
| 20260507075833 | 38 | 91 | 0.0 | 0.0 | 0.00 | 0.00 | 0.00 | 98 | 1010.3 |
| 20260507075329 | 38 | 91 | 0.0 | 0.0 | 0.00 | 0.00 | 0.00 | 98 | 1010.4 |
| 20260507074826 | 38 | 91 | 0.0 | 0.0 | 0.00 | 0.00 | 0.00 | 98 | 1010.3 |
| 20260507074324 | 39 | 91 | 0.0 | 0.0 | 0.00 | 0.00 | 0.00 | 98 | 1010.4 |
| 20260507073821 | 39 | 91 | 0.0 | 0.0 | 0.00 | 0.00 | 0.00 | 98 | 1010.4 |
| 20260507073318 | 39 | 91 | 0.0 | 0.0 | 0.00 | 0.00 | 0.00 | 98 | 1010.5 |
| 20260507072815 | 39 | 92 | 0.0 | 0.0 | 0.00 | 0.00 | 0.00 | 97 | 1010.5 |
| 20260507072312 | 39 | 91 | 0.0 | 0.0 | 0.00 | 0.00 | 0.00 | 97 | 1010.4 |
| 20260507071809 | 39 | 91 | 0.0 | 0.0 | 0.00 | 0.00 | 0.00 | 97 | 1010.5 |
| 20260507071306 | 39 | 91 | 0.0 | 0.0 | 0.00 | 0.00 | 0.00 | 97 | 1010.5 |
| 20260507070802 | 39 | 91 | 0.0 | 0.0 | 0.00 | 0.00 | 0.00 | 98 | 1010.5 |
| 20260507070300 | 39 | 91 | 0.0 | 0.0 | 0.00 | 0.00 | 0.00 | 98 | 1010.7 |
| 20260507065756 | 39 | 91 | 0.0 | 0.0 | 0.00 | 0.00 | 0.00 | 98 | 1010.5 |
| 20260507065253 | 39 | 91 | 0.0 | 0.0 | 0.00 | 0.00 | 0.00 | 98 | 1010.5 |
| 20260507064750 | 40 | 91 | 0.0 | 0.0 | 0.00 | 0.00 | 0.00 | 98 | 1010.5 |
| 20260507064249 | 40 | 91 | 0.0 | 0.0 | 0.00 | 0.00 | 0.00 | 98 | 1010.9 |
| 20260507063746 | 40 | 91 | 0.0 | 0.0 | 0.00 | 0.00 | 0.00 | 98 | 1010.8 |
| 20260507063243 | 40 | 92 | 0.0 | 0.0 | 0.00 | 0.00 | 0.00 | 98 | 1010.8 |
| 20260507062740 | 40 | 91 | 0.0 | 0.0 | 0.00 | 0.00 | 0.00 | 98 | 1011.0 |
| 20260507062237 | 40 | 92 | 0.0 | 0.0 | 0.00 | 0.00 | 0.00 | 98 | 1010.9 |